Location: Baix
(44.7118°N, 4.7648°E)
Time: 02:29:45
(UTC+00:00)

IDEFIX/ARIANE 42P - Pass Details

Date: 07 August 2020
Orbit: 786 x 802 km, 98.4° (Epoch: 19 September)

Event Time Altitude Azimuth Distance (km) Brightness Sun altitude
Rises 02:10:25 0° 22° (NNE) 3,290 7.2 -20.8°
Reaches altitude 10° 02:12:58 10° 31° (NNE) 2,358 6.2 -20.5°
Maximum altitude 02:17:40 34° 96° (E) 1,286 3.9 -20.0°
Enters shadow 02:21:56 12° 158° (SSE) 2,205 4.6 -19.5°
